Simultaneous Nadir Overpasses (SNOs) Predictions

Prediction of SNOs between METOP-B and TERRA Satellite Orbit:

Table of predicted SNOs for the next 14.0 days since TLE Epoch: 10/22/2016
Index Date (METOP-B) Time (METOP-B) Lat,Lon (METOP-B) SZA (METOP-B ) Date (TERRA) Time (TERRA) Lat,Lon (TERRA) SZA (TERRA ) Distance(km) Time Diff (sec)
1 10/22/2016 05:07:23 81.28, 149.86 95.57 10/22/2016 05:08:15 81.29, 149.83 95.60 0.84 52
2 10/22/2016 05:58:03 -81.28, -42.63 84.40 10/22/2016 05:57:42 -81.28, -42.64 84.41 0.35 21
3 10/25/2016 00:41:46 81.28,-143.64 96.57 10/25/2016 00:42:31 81.28,-143.81 96.57 2.89 45
4 10/25/2016 01:32:26 -81.29, 23.88 83.40 10/25/2016 01:31:58 -81.28, 23.75 83.44 2.31 28
5 10/27/2016 20:16:09 81.28, -77.56 97.48 10/27/2016 20:16:47 81.28, -77.44 97.52 2.01 38
6 10
